(14) Irene
ephemeris date magn radius delta ra dec elong phase
Today11 May 202511.42.260 AU2.498 AU07h52m+27°39'64.7°23.8°
Opposition14 Jun 20269.42.447 AU1.431 AU17h34m-22°40'178.8°0.5°
(14) Irene - 2025-05-11
astro.vanbuitenen.nl


 
-1 year
-1 month
-1 day
Now
+1 day
+1 month
+1 year

The interactive orbit chart above shows the body's path through the solar system and its position at the given date. Green and blue lines are shown perpendicular to the ecliptic plane: Green if the path is above the ecliptic plane, blue if it is below. (Left-click and drag to rotate the view; Right-click and drag to move the view; Use scroll wheel to zoom in our out.)

The orbital elements of Irene are:

            e (Eccentricity)                : 0.1627056
            a (Semimajor axis)              : 2.5880494
            i (Inclination)                 : 9.12960
            Ω (Longitude of ascending node) : 86.01070
            ω (Argument of perihelion)      : 98.22480
            M (Mean anomaly)                : 325.60831
            Epoch                           : 2025 May 05

            L (Longitude of perihelion)     : 4.33956
            B (Latitude of perihelion)      : 9.03491
            P (Orbital period in years)     : 4.16            
        

The light curve chart below shows the estimated development of the minor planet's magnitude.


The all-sky chart below shows the path of the minor planet over the same period as the light curve. The current position is marked yellow.





The following chart shows the path of the minor planet in the next few days. The field of view is optimized for (~10x50) binoculars and finderscopes. A more printer-friendly version of the same chart can be found below.




Ephemerides:
Date       Time       RA (2000)    DEC (2000)    delta   radius  elong  phase   PA    magn
2025-05-11 00:00 UT   07 52 09.5   +27 39 07     2.498    2.260   64.7   23.8    98   11.4 
2025-05-11 15:50 UT   07 53 20.1   +27 36 02     2.504    2.259   64.4   23.8    98   11.4 
2025-05-12 00:00 UT   07 53 56.6   +27 34 25     2.507    2.259   64.2   23.7    98   11.4 
2025-05-13 00:00 UT   07 55 44.3   +27 29 37     2.517    2.257   63.6   23.6    98   11.4 
2025-05-14 00:00 UT   07 57 32.4   +27 24 44     2.526    2.256   63.1   23.5    98   11.4 
2025-05-15 00:00 UT   07 59 21.0   +27 19 44     2.535    2.255   62.5   23.4    98   11.4 
2025-05-16 00:00 UT   08 01 10.0   +27 14 39     2.544    2.254   62.0   23.3    98   11.4 
2025-05-17 00:00 UT   08 02 59.5   +27 09 29     2.553    2.253   61.5   23.2    98   11.4 
2025-05-18 00:00 UT   08 04 49.5   +27 04 12     2.562    2.251   60.9   23.1    98   11.4 
2025-05-19 00:00 UT   08 06 39.8   +26 58 50     2.571    2.250   60.4   23.0    98   11.4 
2025-05-20 00:00 UT   08 08 30.6   +26 53 21     2.580    2.249   59.8   22.9    98   11.4 
2025-05-21 00:00 UT   08 10 21.8   +26 47 47     2.589    2.248   59.3   22.8    99   11.5 
2025-05-22 00:00 UT   08 12 13.3   +26 42 08     2.598    2.247   58.8   22.7    99   11.5 
2025-05-23 00:00 UT   08 14 05.3   +26 36 22     2.606    2.245   58.3   22.5    99   11.5 
2025-05-24 00:00 UT   08 15 57.6   +26 30 30     2.615    2.244   57.7   22.4    99   11.5 
2025-05-25 00:00 UT   08 17 50.3   +26 24 33     2.624    2.243   57.2   22.3    99   11.5 
2025-05-26 00:00 UT   08 19 43.3   +26 18 30     2.632    2.242   56.7   22.2    99   11.5 
2025-05-27 00:00 UT   08 21 36.7   +26 12 20     2.641    2.241   56.2   22.1    99   11.5 
2025-05-28 00:00 UT   08 23 30.4   +26 06 05     2.649    2.240   55.7   21.9    99   11.5 
2025-05-29 00:00 UT   08 25 24.4   +25 59 44     2.657    2.239   55.2   21.8    99   11.5 
2025-05-30 00:00 UT   08 27 18.7   +25 53 18     2.666    2.237   54.6   21.7    99   11.5 
2025-05-31 00:00 UT   08 29 13.3   +25 46 45     2.674    2.236   54.1   21.6    99   11.5 


    Terminology:
            
    delta:  distance between minor planet and earth in AU
    radius: distance between minor planet and sun in AU
    magn:   magnitude (brightness) estimate    
    ra:     right ascension in hours (24h = 360deg)
    dec:    declination in degrees
    elong:  elongation in degrees (angle sun-earth-minor planet)    
    phase:  phase angle in degrees (angle sun-minor planet-earth)        
    AU:     Astronomical Unit (mean distance between earth and sun: 149597870.7 km
    

Orbital elements provided by the MPC (Minor Planet Center).
Calculations by a modified version of AAPlus, a C# implementation of the AA+ project by PJ Naughter from the algorithms presented in the book "Astronomical Algorithms" by Jean Meeus.
NGC2000 dso catalog and star labels from VizieR as provided by the Strasbourg astronomical Data Center.
Tycho2 catalog from the ESO archive.